QPF
0.00 0.00 0.00 0.00 0.00 0.00 0.00 0.00 0.00 0.00 0.00 0.00 0.00 0.00 0.00 0.00 0.00 0.00 0.00 0.00 0.00 0.00 0.00 0.00 0.00 0.00 0.00 0.00 0.00 0.00 0.00 0.00 0.00 0.00 0.00 0.00 0.00 0.00 0.00 0.00 0.00 0.00 0.00
0.00 0.00 0.00 0.00 0.00 0.00 0.00 0.00 0.00 0.00 0.00 0.00 0.00 0.00 0.00 0.00 0.00 0.00 0.00 0.00 0.00 0.00 0.00 0.00 0.00 0.00 0.00 0.00 0.00 0.00 0.00 0.00 0.00 0.00 0.00 0.00 0.00 0.00 0.00 0.00 0.00 0.00 0.00
0.00 0.00 0.00 0.00 0.00 0.00 0.00 0.00 0.00 0.00 0.00 0.00 0.00 0.00 0.00 0.00 0.00 0.00 0.00 0.00 0.00 0.00 0.00 0.00 0.00 0.00 0.00 0.00 0.00 0.00 0.00 0.00 0.00 0.00 0.00 0.00 0.00 0.00 0.00 0.00 0.00 0.00 0.00
0.00 0.00 0.00 0.00 0.00 0.00 0.00 0.00 0.00 0.00 0.00 0.00 0.00 0.00 0.00 0.00 0.00 0.00 0.00 0.00 0.00 0.00 0.00 0.00 0.00 0.00 0.00 0.00 0.00 0.00 0.00 0.00 0.00 0.00 0.00 0.00 0.00 0.00 0.00 0.00 0.00 0.00 0.00
0.00 0.00 0.00 0.00 0.00 0.00 0.00 0.00 0.00 0.00 0.00 0.00 0.00 0.00 0.00 0.00 0.00 0.00 0.00 0.00 0.00 0.00 0.00 0.00 0.00 0.00 0.00 0.00 0.00 0.00 0.00 0.00 0.00 0.00 0.00 0.00 0.00 0.00 0.00 0.00 0.00 0.00 0.00
0.00 0.00 0.00 0.00 0.00 0.00 0.00 0.00 0.00 0.00 0.00 0.00 0.00 0.00 0.00 0.00 0.00 0.00 0.00 0.00 0.00 0.00 0.00 0.00 0.00 0.00 0.00 0.00 0.00 0.00 0.00 0.00 0.00 0.00 0.00 0.00 0.00 0.00 0.00 0.00 0.00 0.00 0.00
0.00 0.00 0.00 0.00 0.00 0.00 0.00 0.00 0.00 0.00 0.00 0.00 0.00 0.00 0.00 0.00 0.00 0.00 0.00 0.00 0.00 0.00 0.00 0.00 0.00 0.00 0.00 0.00 0.00 0.00 0.00 0.00 0.00 0.00 0.00 0.00 0.00 0.00 0.00 0.00 0.00 0.00 0.00
0.00 0.00 0.00 0.00 0.00 0.00 0.00 0.00 0.00 0.00 0.00 0.00 0.00 0.00 0.00 0.00 0.00 0.00 0.00 0.00 0.00 0.00 0.00 0.00 0.00 0.00 0.00 0.00 0.00 0.00 0.00 0.00 0.00 0.00 0.00 0.00 0.00 0.00 0.00 0.00 0.00 0.00 0.00
0.00 0.00 0.00 0.00 0.00 0.00 0.00 0.00 0.00 0.00 0.00 0.00 0.00 0.00 0.00 0.00 0.00 0.00 0.00 0.00 0.00 0.00 0.00 0.00 0.00 0.00 0.00 0.00 0.00 0.00 0.00 0.00 0.00 0.00 0.00 0.00 0.00 0.00 0.00 0.00 0.00 0.00 0.00
0.00 0.00 0.00 0.00 0.00 0.00 0.00 0.00 0.00 0.00 0.00 0.00 0.00 0.00 0.00 0.00 0.00 0.00 0.00 0.00 0.00 0.00 0.00 0.00 0.00 0.00 0.00 0.00 0.00 0.00 0.00 0.00 0.00 0.00 0.00 0.00 0.00 0.00 0.00 0.00 0.00 0.00 0.00
0.00 0.00 0.00 0.00 0.00 0.00 0.00 0.00 0.00 0.00 0.00 0.00 0.00 0.00 0.00 0.00 0.00 0.00 0.00 0.00 0.00 0.00 0.00 0.00 0.00 0.00 0.00 0.00 0.00 0.00 0.00 0.00 0.00 0.00 0.00 0.00 0.00 0.00 0.00 0.00 0.00 0.00 0.00
0.00 0.00 0.00 0.00 0.00 0.00 0.00 0.00 0.00 0.00 0.00 0.00 0.00 0.00 0.00 0.00 0.00 0.00 0.00 0.00 0.00 0.00 0.00 0.00 0.00 0.00 0.00 0.00 0.00 0.00 0.00 0.00 0.00 0.00 0.00 0.00 0.00 0.00 0.00 0.00 0.00 0.00 0.00
0.00 0.00 0.00 0.00 0.00 0.00 0.00 0.00 0.00 0.00 0.00 0.00 0.00 0.00 0.00 0.00 0.00 0.00 0.00 0.00 0.00 0.00 0.00 0.00 0.00 0.00 0.00 0.00 0.00 0.00 0.00 0.00 0.00 0.00 0.00 0.00 0.00 0.00 0.00 0.00 0.00 0.00 0.00
0.00 0.00 0.00 0.00 0.00 0.00 0.00 0.00 0.00 0.00 0.00 0.00 0.00 0.00 0.00 0.00 0.00 0.00 0.00 0.00 0.00 0.00 0.00 0.00 0.00 0.00 0.00 0.00 0.00 0.00 0.00 0.00 0.00 0.00 0.00 0.00 0.00 0.00 0.00 0.00 0.00 0.00 0.00
0.00 0.00 0.00 0.00 0.00 0.00 0.00 0.00 0.00 0.00 0.00 0.00 0.00 0.00 0.00 0.00 0.00 0.00 0.00 0.00 0.00 0.00 0.00 0.00 0.00 0.00 0.00 0.00 0.00 0.00 0.00 0.00 0.00 0.00 0.00 0.00 0.00 0.00 0.00 0.00 0.00 0.00 0.01
0.00 0.00 0.00 0.00 0.00 0.00 0.00 0.00 0.00 0.00 0.00 0.00 0.00 0.00 0.00 0.00 0.00 0.00 0.00 0.00 0.00 0.00 0.00 0.00 0.00 0.00 0.00 0.00 0.00 0.00 0.00 0.00 0.00 0.00 0.00 0.00 0.00 0.00 0.00 0.00 0.00 0.01 0.02
0.02 0.01 0.00 0.00 0.00 0.00 0.00 0.00 0.00 0.00 0.00 0.00 0.00 0.00 0.00 0.00 0.00 0.00 0.00 0.00 0.00 0.00 0.00 0.00 0.00 0.00 0.00 0.00 0.00 0.00 0.00 0.00 0.00 0.00 0.00 0.00 0.00 0.00 0.00 0.00 0.00 0.00 0.00
0.00 0.00 0.00 0.00 0.00 0.00 0.00 0.00 0.00 0.00 0.00 0.00 0.00 0.00 0.00 0.00 0.00 0.00 0.00 0.00 0.00 0.00 0.00 0.00 0.00 0.00 0.00 0.00 0.00 0.00 0.00 0.00 0.00 0.00 0.00 0.00 0.00 0.00 0.00 0.00 0.00 0.00 0.00
0.00 0.00 0.00 0.00 0.00 0.00 0.00 0.00 0.00 0.00 0.00 0.00 0.00 0.00 0.00 0.00 0.00 0.00 0.00 0.00 0.00 0.00 0.00 0.00 0.00 0.00 0.00 0.00 0.00 0.00 0.00 0.00 0.00 0.00 0.00 0.00 0.00 0.00 0.00 0.00 0.00 0.00 0.00
0.00 0.00 0.00 0.00 0.00 0.00 0.00 0.00 0.00 0.00 0.00 0.00 0.00 0.00 0.00 0.00 0.00 0.00 0.00 0.00 0.00 0.00 0.00 0.00 0.00 0.00 0.00 0.00 0.00 0.00 0.00 0.00 0.00 0.00 0.00 0.00 0.00 0.00 0.00 0.00 0.01 0.02 0.01
0.00 0.00 0.00 0.00 0.00 0.00 0.00 0.00 0.00 0.00 0.00 0.00 0.00 0.00 0.00 0.00 0.00 0.00 0.00 0.00 0.00 0.00 0.00 0.00 0.00 0.00 0.00 0.00 0.00 0.00 0.00 0.00 0.00 0.00 0.00 0.00 0.00 0.00 0.00 0.00 0.01 0.03 0.02
0.00 0.00 0.00 0.00 0.00 0.00 0.00 0.00 0.00 0.00 0.00 0.00 0.00 0.00 0.00 0.00 0.00 0.00 0.00 0.00 0.00 0.00 0.00 0.00 0.00 0.00 0.00 0.00 0.00 0.00 0.00 0.00 0.01 0.01 0.00 0.00 0.00 0.00 0.00 0.01 0.03 0.03 0.03
0.00 0.00 0.00 0.00 0.00 0.00 0.00 0.00 0.00 0.00 0.00 0.00 0.00 0.00 0.00 0.00 0.00 0.00 0.00 0.00 0.00 0.00 0.00 0.00 0.00 0.00 0.00 0.00 0.00 0.00 0.00 0.00 0.00 0.01 0.01 0.00 0.00 0.01 0.03 0.03 0.03 0.03 0.02
0.00 0.00 0.00 0.00 0.00 0.00 0.00 0.00 0.00 0.00 0.00 0.00 0.00 0.00 0.00 0.00 0.00 0.00 0.00 0.00 0.00 0.00 0.00 0.00 0.00 0.00 0.00 0.00 0.00 0.00 0.00 0.00 0.00 0.00 0.00 0.00 0.00 0.01 0.01 0.01 0.01 0.01 0.01
0.00 0.00 0.00 0.00 0.00 0.00 0.00 0.00 0.00 0.00 0.00 0.00 0.00 0.00 0.00 0.00 0.00 0.00 0.01 0.00 0.00 0.00 0.00 0.00 0.00 0.00 0.00 0.00 0.00 0.00 0.00 0.00 0.00 0.00 0.00 0.00 0.00 0.01 0.02 0.01 0.01 0.00 0.00
0.00 0.00 0.00 0.00 0.00 0.00 0.00 0.00 0.00 0.00 0.00 0.01 0.00 0.00 0.00 0.00 0.00 0.00 0.00 0.00 0.01 0.01 0.01 0.01 0.02 0.03 0.01 0.00 0.00 0.00 0.00 0.01 0.02 0.03 0.07 0.08 0.05 0.03 0.01 0.00 0.00 0.00 0.00
MSLP
1020.45 1021.71 1022.93 1023.91 1024.66 1025.15 1025.54 1025.95 1026.36 1026.70 1026.80 1027.03 1027.28 1027.69 1028.31 1028.98 1029.52 1029.95 1030.15 1030.30 1030.43 1030.44 1030.35 1030.44 1030.50 1030.38 1030.48 1030.50 1030.38 1030.07 1029.65 1029.54 1029.48 1028.39 1027.62 1026.82 1026.90 1027.14 1027.27 1027.41 1027.56 1027.82 1027.79
1019.99 1021.54 1022.73 1023.73 1024.53 1025.16 1025.64 1026.05 1026.46 1026.89 1026.89 1027.00 1027.26 1027.75 1028.46 1029.15 1029.85 1030.42 1030.67 1030.74 1030.88 1030.92 1030.89 1030.95 1031.04 1031.06 1030.88 1030.94 1030.91 1030.76 1030.45 1029.94 1030.09 1029.59 1028.34 1027.55 1027.10 1027.29 1027.42 1027.63 1027.76 1027.98 1028.09
1019.32 1021.15 1022.51 1023.46 1024.26 1024.97 1025.64 1026.09 1026.61 1027.00 1027.37 1027.70 1028.19 1028.51 1029.14 1029.51 1029.76 1030.22 1030.75 1031.15 1031.18 1031.31 1031.38 1031.49 1031.48 1031.53 1031.48 1031.49 1031.54 1031.56 1031.29 1030.83 1030.41 1030.42 1030.02 1028.95 1028.48 1028.63 1027.63 1027.64 1027.80 1027.91 1028.17
1019.18 1020.99 1022.41 1023.43 1024.12 1024.90 1025.85 1026.51 1026.93 1027.32 1027.74 1027.89 1028.05 1028.34 1028.45 1028.97 1029.80 1030.36 1030.88 1031.35 1031.48 1031.67 1031.80 1031.87 1031.96 1032.00 1032.04 1032.03 1032.00 1031.89 1031.85 1031.59 1031.10 1030.77 1030.69 1030.69 1030.55 1029.87 1028.69 1028.03 1028.30 1028.21 1028.22
1018.93 1020.71 1022.17 1023.25 1024.15 1024.98 1025.91 1026.57 1027.04 1027.45 1027.81 1027.95 1028.14 1028.41 1028.66 1029.43 1030.01 1030.43 1030.84 1031.18 1031.58 1031.86 1032.07 1032.10 1032.15 1032.21 1032.26 1032.33 1032.41 1032.30 1032.15 1031.93 1031.82 1031.52 1031.16 1030.85 1030.48 1030.26 1029.92 1028.92 1028.60 1028.62 1028.47
1018.80 1020.52 1021.95 1023.09 1023.89 1025.09 1025.91 1026.57 1027.11 1027.58 1027.96 1028.21 1028.46 1028.60 1029.01 1029.47 1029.90 1030.29 1030.55 1030.93 1031.23 1031.62 1032.05 1032.26 1032.25 1032.29 1032.41 1032.51 1032.52 1032.42 1032.17 1032.11 1031.95 1031.71 1031.45 1031.13 1030.83 1030.41 1030.23 1029.70 1029.40 1029.06 1028.68
1018.73 1020.25 1021.64 1022.80 1023.79 1024.87 1025.62 1026.31 1026.95 1027.57 1028.07 1028.48 1028.81 1029.11 1029.41 1029.67 1029.91 1030.26 1030.58 1030.88 1031.08 1031.37 1031.76 1032.19 1032.23 1032.37 1032.57 1032.66 1032.55 1032.42 1032.24 1032.01 1031.86 1031.60 1031.37 1031.17 1031.05 1030.89 1030.66 1030.36 1029.73 1029.14 1028.73
1018.98 1020.27 1021.56 1022.84 1023.92 1024.91 1025.69 1026.35 1027.05 1027.74 1028.27 1028.76 1029.25 1029.61 1029.84 1030.04 1030.33 1030.68 1030.90 1031.05 1031.23 1031.50 1031.90 1032.05 1032.27 1032.37 1032.43 1032.44 1032.42 1032.22 1031.98 1031.88 1031.70 1031.41 1031.23 1031.04 1030.85 1030.75 1030.59 1030.38 1030.07 1029.26 1028.77
1019.64 1020.67 1021.90 1023.24 1024.24 1025.15 1025.89 1026.62 1027.31 1028.12 1028.66 1029.15 1029.63 1029.94 1030.23 1030.45 1030.66 1031.03 1031.20 1031.20 1031.43 1031.60 1031.90 1032.06 1032.16 1032.22 1032.24 1032.29 1032.35 1032.10 1031.85 1031.73 1031.50 1031.14 1030.79 1030.65 1030.49 1030.39 1030.37 1030.23 1030.11 1029.77 1028.86
1020.77 1021.58 1022.68 1023.71 1024.63 1025.57 1026.33 1027.10 1027.84 1028.47 1029.04 1029.49 1029.84 1030.23 1030.61 1030.90 1031.09 1031.24 1031.23 1031.37 1031.49 1031.68 1031.86 1032.00 1032.06 1032.14 1032.18 1032.21 1032.15 1031.94 1031.61 1031.53 1031.35 1030.91 1030.67 1030.44 1030.22 1030.02 1029.96 1029.87 1029.66 1029.51 1029.14
1022.01 1022.75 1023.64 1024.56 1025.41 1026.24 1026.91 1027.50 1028.09 1028.67 1029.28 1029.65 1030.01 1030.38 1030.70 1031.02 1031.17 1031.23 1031.21 1031.27 1031.51 1031.68 1031.88 1031.95 1032.02 1032.10 1032.14 1032.07 1031.98 1031.75 1031.46 1031.38 1031.04 1030.83 1030.41 1030.24 1030.09 1029.71 1029.82 1029.59 1029.21 1029.01 1028.77
1023.19 1023.91 1024.80 1025.72 1026.61 1027.21 1027.74 1028.20 1028.56 1028.94 1029.34 1029.80 1030.17 1030.39 1030.57 1030.75 1030.92 1030.98 1031.08 1031.23 1031.43 1031.54 1031.76 1031.84 1031.89 1031.99 1031.86 1031.71 1031.56 1031.39 1031.21 1031.00 1030.68 1030.51 1030.33 1029.90 1029.77 1029.34 1029.46 1029.20 1028.81 1028.36 1028.45
1024.35 1025.15 1025.93 1026.71 1027.43 1028.03 1028.41 1028.68 1029.05 1029.38 1029.68 1029.99 1030.29 1030.44 1030.56 1030.61 1030.70 1030.68 1030.87 1031.13 1031.33 1031.42 1031.44 1031.50 1031.54 1031.53 1031.46 1031.31 1031.22 1030.94 1030.81 1030.60 1030.33 1030.06 1029.97 1029.53 1029.41 1029.11 1028.99 1028.72 1028.18 1027.97 1027.87
1025.04 1025.77 1026.48 1027.20 1027.83 1028.42 1028.91 1029.25 1029.51 1029.75 1030.13 1030.36 1030.48 1030.53 1030.61 1030.65 1030.56 1030.49 1030.56 1030.78 1030.96 1031.03 1031.03 1031.01 1031.02 1031.02 1030.92 1030.78 1030.68 1030.58 1030.39 1030.13 1029.83 1029.59 1029.32 1029.02 1028.84 1028.66 1028.49 1028.17 1027.86 1027.61 1027.28
1025.56 1026.14 1026.76 1027.37 1027.99 1028.49 1028.95 1029.33 1029.60 1029.86 1030.15 1030.47 1030.54 1030.47 1030.50 1030.46 1030.48 1030.36 1030.36 1030.42 1030.41 1030.42 1030.46 1030.52 1030.47 1030.38 1030.30 1030.19 1030.12 1030.01 1029.72 1029.41 1029.09 1028.80 1028.48 1028.16 1027.95 1027.70 1027.48 1027.29 1027.21 1027.12 1026.85
1025.83 1026.47 1026.99 1027.58 1028.06 1028.54 1028.95 1029.26 1029.48 1029.82 1030.23 1030.27 1030.30 1030.38 1030.36 1030.32 1030.24 1030.12 1030.00 1029.94 1029.89 1029.77 1029.77 1029.79 1029.73 1029.67 1029.62 1029.49 1029.37 1029.24 1029.07 1028.83 1028.49 1028.14 1027.82 1027.48 1027.09 1026.74 1026.36 1025.98 1025.84 1025.84 1025.69
1026.81 1027.31 1027.77 1028.13 1028.39 1028.64 1028.93 1029.05 1029.24 1029.56 1029.85 1029.95 1030.03 1030.07 1030.13 1030.10 1030.06 1029.90 1029.70 1029.49 1029.31 1029.18 1029.09 1029.02 1028.96 1028.84 1028.82 1028.73 1028.55 1028.40 1028.19 1027.99 1027.73 1027.48 1027.12 1026.64 1026.17 1025.90 1025.62 1025.37 1024.86 1024.51 1024.44
1027.69 1027.98 1028.27 1028.43 1028.56 1028.76 1028.88 1028.92 1029.05 1029.25 1029.41 1029.49 1029.58 1029.60 1029.67 1029.71 1029.66 1029.53 1029.29 1029.06 1028.87 1028.67 1028.52 1028.31 1028.17 1028.03 1027.88 1027.77 1027.63 1027.52 1027.32 1027.11 1026.90 1026.69 1026.39 1025.96 1025.55 1025.26 1024.99 1024.64 1024.28 1023.96 1023.78
1028.06 1028.12 1028.13 1028.12 1028.21 1028.40 1028.44 1028.59 1028.68 1028.76 1028.81 1028.79 1028.70 1028.80 1028.90 1028.96 1029.00 1028.84 1028.65 1028.53 1028.34 1028.14 1027.92 1027.65 1027.38 1027.18 1027.02 1027.01 1026.77 1026.69 1026.52 1026.22 1025.95 1025.72 1025.46 1025.14 1024.70 1024.38 1023.98 1023.59 1023.33 1023.12 1022.84
1027.76 1027.72 1027.63 1027.58 1027.71 1027.71 1027.85 1027.96 1027.86 1027.85 1027.73 1027.51 1027.47 1027.63 1027.85 1028.00 1028.07 1028.04 1028.04 1027.97 1027.82 1027.51 1027.37 1026.94 1026.68 1026.43 1026.17 1026.17 1025.87 1025.73 1025.60 1025.29 1025.17 1025.01 1024.81 1024.47 1023.81 1023.41 1022.95 1022.62 1022.49 1022.17 1021.76
1026.64 1026.87 1026.73 1026.71 1026.81 1027.15 1027.38 1027.04 1026.83 1026.60 1026.39 1026.45 1026.54 1026.76 1026.96 1027.06 1027.09 1027.18 1027.26 1027.24 1027.15 1026.89 1026.63 1026.39 1026.15 1025.81 1025.60 1025.46 1025.18 1024.98 1024.76 1024.56 1024.34 1024.07 1023.73 1023.31 1022.85 1022.15 1021.64 1021.31 1021.16 1020.98 1020.82
1025.82 1025.78 1025.46 1025.29 1025.36 1025.53 1026.02 1025.86 1025.75 1025.70 1025.73 1025.77 1025.82 1025.91 1026.00 1026.09 1026.12 1026.20 1026.30 1026.34 1026.36 1026.21 1026.05 1025.92 1025.56 1025.25 1025.09 1024.83 1024.49 1024.14 1023.78 1023.51 1023.20 1023.04 1022.73 1022.32 1021.92 1021.31 1020.78 1020.35 1020.05 1019.61 1019.24
1025.31 1025.00 1024.66 1024.33 1024.28 1024.30 1024.39 1024.17 1024.14 1024.58 1024.76 1024.84 1024.87 1024.97 1025.06 1025.15 1025.24 1025.30 1025.29 1025.34 1025.40 1025.31 1025.09 1024.93 1024.60 1024.33 1024.19 1023.84 1023.51 1022.99 1022.55 1022.22 1021.89 1021.75 1021.46 1020.98 1020.44 1020.01 1019.56 1019.29 1018.95 1018.64 1018.48
1024.86 1024.54 1024.12 1023.66 1023.32 1023.32 1023.17 1022.92 1022.97 1023.21 1023.46 1023.67 1023.81 1023.91 1024.11 1024.23 1024.27 1024.26 1024.22 1024.20 1024.18 1024.05 1023.90 1023.76 1023.54 1023.36 1023.21 1022.95 1022.65 1022.27 1022.01 1021.71 1021.25 1020.78 1020.27 1019.83 1019.37 1018.94 1018.48 1018.10 1017.99 1017.93 1017.62
1024.51 1024.17 1023.60 1023.09 1022.69 1022.57 1022.30 1022.15 1022.13 1022.20 1022.31 1022.55 1022.76 1022.90 1022.95 1023.00 1022.89 1022.80 1022.77 1022.81 1022.86 1022.87 1022.79 1022.59 1022.51 1022.44 1022.15 1021.84 1021.49 1021.34 1021.19 1020.88 1020.43 1019.94 1019.54 1019.15 1018.77 1018.40 1018.07 1017.64 1017.53 1017.35 1017.16
1024.21 1023.68 1023.17 1022.65 1022.18 1021.96 1021.76 1021.67 1021.65 1021.69 1021.80 1021.80 1021.88 1021.87 1021.77 1021.73 1021.71 1021.65 1021.53 1021.42 1021.03 1020.87 1020.74 1020.66 1020.69 1020.87 1020.30 1020.15 1020.02 1019.67 1019.21 1018.85 1018.59 1018.36 1018.08 1017.70 1017.48 1017.00 1017.09 1017.21 1017.01 1016.89 1016.80
Thickness
5559 5550 5541 5534 5529 5526 5524 5522 5519 5517 5517 5516 5514 5512 5508 5503 5500 5498 5497 5496 5496 5497 5497 5497 5497 5498 5498 5498 5499 5502 5507 5509 5510 5519 5524 5532 5531 5531 5530 5530 5531 5532 5534
5553 5540 5531 5525 5519 5514 5511 5509 5506 5503 5503 5502 5501 5497 5493 5488 5484 5481 5480 5480 5479 5479 5479 5479 5479 5479 5480 5480 5481 5482 5486 5492 5490 5494 5506 5512 5516 5516 5514 5513 5514 5514 5516
5547 5531 5520 5513 5508 5502 5498 5496 5493 5490 5486 5484 5480 5478 5474 5473 5471 5468 5464 5462 5462 5461 5460 5459 5459 5459 5459 5460 5460 5460 5463 5468 5473 5472 5475 5487 5492 5486 5498 5497 5497 5498 5498
5532 5517 5505 5499 5496 5491 5484 5479 5476 5474 5471 5469 5468 5466 5467 5463 5455 5451 5448 5445 5444 5442 5441 5440 5439 5439 5438 5438 5439 5440 5441 5444 5449 5452 5454 5453 5453 5459 5471 5479 5476 5478 5479
5519 5504 5494 5487 5481 5476 5469 5465 5462 5459 5456 5454 5452 5451 5449 5443 5438 5435 5431 5429 5426 5423 5422 5421 5420 5420 5420 5419 5419 5420 5421 5422 5423 5426 5429 5432 5436 5439 5442 5452 5457 5456 5458
5509 5495 5484 5476 5472 5462 5456 5451 5447 5443 5440 5437 5435 5435 5431 5427 5423 5419 5417 5414 5411 5407 5404 5402 5401 5401 5400 5399 5399 5399 5401 5401 5402 5405 5407 5410 5412 5416 5419 5426 5431 5435 5439
5499 5487 5476 5467 5460 5451 5445 5439 5434 5428 5424 5421 5417 5414 5411 5409 5406 5403 5400 5397 5395 5392 5389 5385 5383 5382 5380 5378 5379 5379 5380 5382 5383 5385 5386 5388 5389 5391 5393 5397 5405 5413 5420
5485 5475 5464 5454 5444 5436 5430 5424 5418 5412 5407 5402 5397 5394 5391 5388 5385 5381 5379 5377 5375 5372 5369 5367 5364 5363 5362 5361 5360 5360 5361 5362 5363 5365 5365 5367 5368 5369 5371 5374 5378 5386 5393
5466 5458 5447 5435 5426 5419 5413 5406 5400 5393 5388 5383 5378 5375 5371 5368 5365 5361 5358 5357 5354 5352 5349 5347 5345 5343 5341 5340 5339 5340 5341 5341 5342 5344 5346 5347 5348 5349 5349 5350 5352 5355 5363
5438 5432 5423 5416 5409 5401 5394 5387 5380 5374 5369 5364 5360 5356 5351 5347 5343 5341 5339 5337 5334 5332 5329 5326 5324 5321 5320 5318 5317 5317 5318 5318 5318 5321 5322 5324 5325 5325 5325 5327 5330 5331 5335
5412 5407 5399 5392 5385 5378 5372 5366 5361 5355 5349 5345 5341 5336 5332 5327 5324 5322 5320 5318 5315 5312 5308 5306 5304 5301 5299 5296 5295 5295 5296 5295 5296 5297 5299 5301 5300 5303 5300 5301 5305 5308 5310
5388 5382 5373 5365 5357 5351 5347 5342 5338 5334 5331 5325 5320 5316 5313 5310 5306 5303 5300 5297 5294 5291 5287 5283 5281 5277 5276 5275 5274 5273 5272 5273 5274 5274 5274 5277 5275 5278 5275 5276 5279 5283 5282
5359 5352 5345 5337 5331 5326 5323 5320 5316 5311 5307 5303 5298 5295 5292 5290 5286 5283 5279 5275 5271 5268 5265 5262 5260 5257 5254 5253 5250 5250 5249 5249 5249 5250 5249 5252 5249 5251 5248 5248 5252 5253 5252
5338 5330 5323 5315 5309 5303 5298 5294 5291 5288 5283 5280 5276 5272 5268 5265 5263 5260 5257 5253 5249 5246 5243 5240 5238 5234 5232 5230 5227 5223 5223 5223 5224 5224 5224 5224 5222 5221 5219 5219 5221 5221 5223
5318 5311 5304 5298 5290 5284 5278 5272 5269 5265 5262 5256 5252 5248 5245 5242 5238 5236 5233 5230 5227 5224 5220 5216 5214 5211 5208 5205 5201 5197 5197 5199 5200 5200 5200 5199 5197 5196 5194 5193 5193 5190 5192
5300 5292 5284 5277 5271 5264 5258 5252 5247 5243 5238 5235 5230 5225 5221 5218 5215 5212 5210 5207 5204 5201 5198 5194 5192 5190 5186 5183 5179 5175 5176 5176 5178 5178 5177 5175 5175 5174 5173 5175 5173 5173 5172
5268 5260 5254 5249 5245 5240 5235 5230 5225 5220 5216 5212 5208 5203 5197 5194 5191 5189 5187 5185 5182 5179 5176 5174 5172 5170 5167 5163 5160 5158 5159 5160 5161 5160 5159 5159 5158 5154 5153 5153 5154 5156 5157
5239 5233 5227 5223 5219 5215 5209 5205 5202 5198 5194 5190 5185 5179 5175 5171 5168 5167 5165 5162 5159 5158 5156 5156 5155 5154 5154 5150 5148 5145 5144 5145 5145 5144 5142 5141 5141 5139 5134 5133 5135 5139 5139
5209 5205 5202 5199 5196 5190 5183 5181 5179 5175 5171 5169 5164 5159 5154 5152 5148 5146 5144 5141 5139 5140 5140 5140 5141 5142 5142 5138 5135 5131 5130 5131 5131 5129 5128 5126 5126 5125 5120 5118 5121 5123 5125
5185 5180 5178 5177 5173 5168 5161 5160 5160 5156 5154 5149 5147 5142 5137 5133 5130 5126 5124 5123 5122 5124 5125 5128 5128 5129 5130 5125 5122 5118 5116 5117 5115 5113 5112 5110 5110 5110 5109 5106 5106 5108 5116
5168 5158 5157 5155 5150 5143 5135 5139 5138 5139 5132 5129 5128 5124 5120 5117 5115 5113 5111 5110 5110 5111 5112 5113 5114 5114 5113 5112 5108 5105 5102 5101 5100 5099 5098 5097 5095 5098 5099 5099 5098 5100 5103
5147 5142 5141 5141 5136 5128 5117 5118 5119 5116 5112 5111 5110 5108 5106 5103 5103 5102 5100 5098 5096 5097 5097 5096 5099 5100 5098 5096 5095 5092 5090 5087 5087 5086 5084 5084 5082 5085 5087 5089 5091 5094 5096
5124 5121 5120 5121 5117 5112 5107 5110 5109 5100 5097 5098 5097 5095 5092 5091 5089 5088 5088 5086 5084 5084 5085 5084 5086 5087 5083 5083 5082 5081 5080 5078 5076 5074 5073 5074 5075 5077 5079 5081 5083 5085 5085
5101 5099 5099 5101 5102 5096 5095 5095 5093 5089 5085 5083 5082 5080 5078 5076 5074 5073 5073 5072 5072 5072 5072 5072 5073 5072 5072 5070 5067 5066 5065 5062 5061 5061 5062 5064 5066 5070 5073 5075 5075 5075 5075
5077 5074 5075 5078 5080 5077 5077 5076 5074 5071 5071 5068 5066 5064 5063 5060 5060 5060 5060 5059 5059 5058 5057 5059 5059 5058 5058 5057 5055 5054 5051 5049 5049 5048 5050 5052 5054 5058 5061 5065 5064 5063 5063
5048 5047 5049 5050 5054 5054 5054 5051 5048 5046 5046 5047 5046 5046 5045 5044 5044 5044 5045 5046 5050 5051 5051 5052 5051 5049 5051 5050 5047 5047 5048 5048 5047 5044 5047 5050 5052 5057 5056 5054 5053 5053 5054